CST,Max TemperatureF,Mean TemperatureF,Min TemperatureF,Max Dew PointF,MeanDew PointF,Min DewpointF,Max Humidity, Mean Humidity, Min Humidity, Max Sea Level PressureIn, Mean Sea Level PressureIn, Min Sea Level PressureIn, Max VisibilityMiles, Mean VisibilityMiles, Min VisibilityMiles, Max Wind SpeedMPH, Mean Wind SpeedMPH, Max Gust SpeedMPH,PrecipitationIn, CloudCover, Events, WindDirDegrees
2013-2-1,24,17,10,10,2,-6,59,49,40,30.54,30.42,30.31,10,10,5,22,11,28,0.00,2,,273
2013-2-2,39,32,26,21,17,10,64,54,48,30.32,30.14,30.05,10,10,10,16,8,20,0.00,6,,239
2013-2-3,32,24,15,21,16,3,74,64,51,30.19,30.10,30.00,10,8,1,18,4,22,0.08,5,,263
2013-2-4,44,30,15,34,24,3,76,64,49,30.12,29.93,29.84,10,10,9,18,7,26,0.04,6,,207
2013-2-5,51,40,28,36,27,19,75,62,50,30.10,29.97,29.92,10,10,5,16,6,16,0.00,2,,269
2013-2-6,44,35,26,27,24,16,69,59,46,30.28,30.19,30.11,10,10,5,9,4,,0.00,0,,61
2013-2-7,64,48,33,46,36,23,76,62,45,30.12,29.97,29.85,10,10,8,15,7,21,0.20,3,,153
2013-2-8,46,40,33,37,24,19,71,60,56,30.38,30.23,29.92,10,10,10,18,12,25,0.02,8,,355
2013-2-9,46,37,28,27,23,19,69,57,46,30.40,30.29,30.12,10,10,10,10,6,,0.00,4,,106
2013-2-10,53,46,39,45,37,27,72,64,50,30.09,29.89,29.74,10,10,9,29,11,44,0.36,7,Thunderstorm,160
2013-2-11,53,43,33,45,28,21,76,52,38,30.15,30.02,29.82,10,10,10,21,14,28,0.00,0,,252
2013-2-12,48,37,26,28,24,18,70,58,40,30.17,30.07,29.89,10,10,10,7,3,,0.00,2,,18
2013-2-13,44,38,33,30,27,23,70,63,53,29.93,29.88,29.83,10,9,2,13,8,16,0.06,5,,290
2013-2-14,57,46,35,37,30,27,70,59,44,30.04,29.94,29.90,10,10,10,17,11,22,0.00,1,,249
2013-2-15,42,33,24,28,21,14,70,58,41,30.23,30.16,30.04,10,10,10,22,6,22,0.00,3,,318
2013-2-16,35,29,23,18,12,9,69,53,35,30.22,30.19,30.16,10,10,10,16,6,21,0.00,2,,308
2013-2-17,42,30,17,18,14,7,68,50,34,30.28,30.19,30.09,10,10,10,12,3,,0.00,1,,155
2013-2-18,59,46,33,39,28,16,71,55,38,30.09,29.92,29.71,10,10,5,33,14,46,0.45,3,,180
2013-2-19,41,34,26,30,18,10,70,52,41,30.27,30.08,29.82,10,10,10,24,17,34,0.00,3,,294
2013-2-20,28,24,21,10,9,5,54,49,43,30.39,30.32,30.27,10,10,10,14,8,17,0.00,0,,353
2013-2-21,33,28,23,25,16,9,70,57,47,30.32,30.12,29.85,10,10,4,25,11,32,0.66,5,,77
2013-2-22,44,38,33,32,27,19,75,65,56,30.07,29.97,29.83,10,9,1,18,9,22,0.01,8,,248
2013-2-23,41,34,26,23,18,14,64,55,45,30.07,30.03,29.97,10,10,10,12,6,,0.00,0,,327
2013-2-24,44,34,23,25,19,12,69,55,39,30.17,30.10,30.03,10,10,9,9,3,,0.00,0,,47
2013-2-25,51,42,32,28,24,19,60,50,41,30.08,29.92,29.58,10,10,10,22,12,30,0.00,2,,75
2013-2-26,50,44,39,39,32,25,76,67,46,29.63,29.47,29.38,10,10,5,25,15,31,0.54,8,,182
2013-2-27,39,36,33,30,25,21,70,63,56,29.86,29.78,29.63,10,10,8,20,14,28,0.03,8,,263
2013-2-28,37,34,32,27,24,21,70,64,60,30.07,29.97,29.86,10,10,7,15,12,22,0.00,8,,287